Terug naar catalogus

DB-SKYFORGE CORE-TU

ActiefAmateurradioSSO
NORAD 68445·PAYLOAD·🇺🇸 United States

Gelanceerd Mar 30, 2026 vanaf Vandenberg Space Force Base

Loading…

Volgende Passages (komende 24 uur)

TLE

VersSource: Space-Track

Epoch: Sep 14, 2026, 03:10 UTC

1 68445U 26067AF  26257.13234631  .00003320  00000-0  16676-3 0  9990
2 68445  97.4623 214.1177 0006494 118.0405 242.1487 15.17960491 25429

Volg DB-SKYFORGE CORE-TU in realtime met AllMySat

Download on the App Store